Location: 10044 Water Well
(34.6620°N, 106.0953°W)
Time: 06:18:21
(UTC+00:00)

Daily predictions for brighter satellites

Satellite Brightness Start Highest point End
(mag) Time Altitude Azimuth Time Altitude Azimuth Time Altitude Azimuth
Cosmos 2237 Rocket 3.1 12:04:00 10° S 12:09:23 48° ESE 12:14:50 10° NNE
Cosmos 2333 Rocket 3.3 12:13:27 28° NNW 12:13:27 28° NNW 12:16:33 10° N
GPS 2-04 Rocket1 2.8 12:13:17 74° SE 12:13:17 74° SE 12:17:10 10° ESE
deb Chang Zheng 4 3.5 12:10:28 10° NNE 12:14:43 80° ESE 12:18:56 10° S
Cosmos 2219 Rocket 3.0 12:17:16 33° NNW 12:17:16 33° NNW 12:20:54 10° N
Cosmos 1953 3.2 12:18:52 10° SSE 12:22:43 50° E 12:26:34 10° NNE
YAOGAN 6 4.4 12:21:11 10° NNE 12:24:33 33° E 12:27:55 10° SSE
FALCON 9 DEB 3.9 12:25:36 43° NNE 12:25:36 43° NNE 12:28:03 10° NE
COSMOS 2428 3.1 12:30:54 37° WNW 12:31:01 37° WNW 12:36:17 10° N
Cosmos 1461 3.3 12:30:57 47° WNW 12:31:25 49° WNW 12:36:03 10° NNE
Cosmos 468 Rocket 4.2 12:31:23 36° WSW 12:32:50 44° WNW 12:37:53 10° N
Cosmos 1892 Rocket 3.4 12:31:19 20° NNW 12:34:19 75° W 12:38:41 10° S
Cosmos 1908 4.4 12:31:25 10° SSE 12:34:59 42° E 12:38:37 10° NNE
ERS-2 2.2 12:31:26 10° SSE 12:35:04 76° ENE 12:37:40 18° N
GEOS 3 Rocket 4.1 12:30:17 10° SE 12:35:31 60° NE 12:40:17 13° NNW
Meteor PRIRODA 3.5 12:36:13 10° N 12:39:49 62° WNW 12:43:22 10° SSW
Cosmos 1814 Rocket 4.3 12:36:25 10° S 12:41:30 66° ESE 12:46:35 10° NNE
Cosmos 1980 3.6 12:36:19 10° SSW 12:41:58 80° WNW 12:47:39 10° NNE
Cosmos 921 Rocket 3.6 12:43:58 34° NW 12:43:58 34° NW 12:47:21 10° N
COSMO-SKYMED 1 2.6 12:39:44 10° S 12:43:59 57° W 12:47:20 16° NNW
Cosmos 1937 Rocket 3.9 12:40:06 10° N 12:45:20 63° ENE 12:50:30 10° SSE
CZ-3A R/B 4.5 12:41:05 17° WSW 12:49:07 33° SSW 12:56:11 10° SE
USA 306 4.4 12:46:35 10° SSW 12:50:28 37° SE 12:54:24 10° ENE
Envisat 3.1 12:45:33 10° NNE 12:50:39 81° ESE 12:55:44 10° S
SJ 16-02 2.3 12:52:18 27° W 12:52:26 27° W 12:56:05 10° SSW
CZ-4B DEB 4.5 12:56:30 10° NNE 13:02:05 75° ESE 13:07:37 10° S
CZ-2C R/B 1.5 12:59:14 17° WSW 13:02:20 62° SSE 13:06:11 10° E
Cosmos 1544 Rocket 3.8 12:58:50 10° SSW 13:02:57 44° W 13:07:05 10° N
CZ-4B R/B 3.6 13:00:57 10° NNW 13:04:00 26° WNW 13:07:05 10° SW
IUS R/B (1) 3.9 13:02:57 10° SW 13:04:37 16° S 13:06:13 10° SE
USA 276 2.7 13:05:16 25° W 13:06:31 38° SW 13:09:26 10° SSE
CZ-4B R/B 3.1 13:05:00 10° SW 13:06:46 17° WSW 13:06:46 17° WSW
Lacrosse 4 Rocket 1.8 13:05:40 10° SSW 13:09:46 67° ESE 13:14:01 10° NNE
Meteor 1-16 Rocket 4.3 13:04:06 10° SSW 13:09:53 66° W 13:15:47 10° N
Cosmos 1703 3.4 13:08:37 10° N 13:12:30 75° E 13:16:24 10° S
Okean 1-7 Rocket 4.1 13:11:01 10° NNW 13:15:14 39° W 13:19:23 10° SSW
Cosmos 1340 2.9 13:12:06 10° N 13:15:51 71° E 13:19:35 10° SSE
Cosmos 540 Rocket 4.0 13:12:12 10° SW 13:16:51 35° WNW 13:21:33 10° N
NOSS 0 Rocket 4.5 13:11:27 10° SW 13:17:01 35° WNW 13:22:37 10° N
Cosmos 1689 Rocket 2.7 13:15:35 10° SSW 13:18:15 33° W 13:20:57 10° NNW
OAO 1 Rocket 4.4 13:13:50 14° W 13:18:27 85° N 13:23:46 10° E
Lacrosse 5 rocket 3.3 13:17:07 10° N 13:19:56 19° NE 13:22:38 10° E
BREEZE M DEB (TANK) 2.0 13:20:28 16° W 13:21:49 34° NNW 13:24:39 10° NE
MOS 1 Rocket 4.1 13:17:11 10° SSW 13:21:53 35° W 13:26:23 10° NNW
SAR-Lupe-4 4.4 13:20:29 10° SSW 13:23:39 30° W 13:26:51 10° NW
Cosmos 44 Rocket 3.5 13:21:04 10° NNW 13:26:19 88° ENE 13:31:30 10° SSE
H-2A R/B 4.0 13:24:41 10° NNW 13:27:20 19° WNW 13:30:00 10° WSW
Cosmos 1626 Rocket 3.7 13:22:58 10° NNW 13:27:21 57° W 13:31:43 10° S
Cosmos 2228 3.8 13:24:43 10° S 13:28:54 57° E 13:33:03 10° NNE
Cosmos 1400 Rocket 3.3 13:27:58 10° SSW 13:31:46 39° WNW 13:35:38 10° N
Atlas Centaur 2 3.5 13:26:31 10° WSW 13:34:38 65° S 13:43:02 10° E
Cosmos 1328 3.7 13:33:54 10° N 13:37:49 72° W 13:41:41 10° S
SL-4 R/B 2.0 13:35:48 10° WSW 13:39:27 52° NW 13:43:25 10° NE
SL-16 R/B 2.2 13:34:31 10° SSW 13:40:09 81° WNW 13:45:51 10° NNE
OAO 2 Rocket 3.3 13:38:29 10° W 13:43:25 90° N 13:48:22 10° E
Chandra Rocket (1) 2.9 13:41:15 10° WSW 13:44:01 24° S 13:46:06 10° SE
NOSS 3-2 (A) 3.3 13:41:53 10° SW 13:47:18 63° NW 13:53:25 10° NNE
CZ-4B R/B 3.3 13:41:44 10° N 13:47:24 76° WNW 13:52:57 10° SSW
